Location: Cold Norton
(51.6667°N, 0.6667°E)
Time: 06:54:41
(UTC+00:00)

SL-19 R/B - Pass Details

Date: 18 November 2025
Orbit: 795 x 1008 km, 99.6° (Epoch: 12 December)

Event Time Altitude Azimuth Distance (km) Brightness Sun altitude
Rises 18:11:57 0° 160° (SSE) 3,301 7.2 -19.6°
Reaches altitude 10° 18:14:15 10° 160° (SSE) 2,366 6.4 -19.9°
Maximum altitude 18:19:27 88° 74° (ENE) 805 4.0 -20.8°
Drops below altitude 10° 18:24:44 10° 344° (NNW) 2,401 6.7 -21.6°
Sets 18:27:06 0° 344° (NNW) 3,353 7.5 -21.9°
